Weather History for Topeka Forbes, KS

Change the Weather History Date:

Wednesday, October 10, 2012

  Actual Average Record
Temperature  
Mean Temperature 47 °F -  
Max Temperature 64 °F 69 °F 95 °F (1963)
Min Temperature 30 °F 42 °F 26 °F (2000)
Degree Days  
Heating Degree Days 18    
Moisture  
Dew Point 28 °F    
Average Humidity 52    
Maximum Humidity 82    
Minimum Humidity 25    
Precipitation  
Precipitation 0.00 in - - ()
Sea Level Pressure  
Sea Level Pressure 30.21 in    
Wind  
Wind Speed 3 mph (South)    
Max Wind Speed 9 mph    
Max Gust Speed -    
Visibility 10 miles    
Events      
Averages and records for this station are not official NWS values.
T = Trace of Precipitation, MM = Missing Value Source: NWS Daily Summary

Daily Weather History Graph

Daily Weather History Graph

Search for Another Location

Airport:

Trip Planner

Search our weather history database for the weather conditions in past years. The results will help you decide how hot, cold, wet, or windy it might be!

Date:

Astronomy

Oct. 10, 2012 Rise Set
Actual Time 7:27 AM CDT 6:50 PM CDT
Civil Twilight 7:00 AM CDT 7:17 PM CDT
Nautical Twilight 6:30 AM CDT 7:48 PM CDT
Astronomical Twilight 5:59 AM CDT 8:19 PM CDT
Moon 2:07 AM CDT (10/10) 3:51 PM CDT (10/10)
Length of Visible Light 12h 16m
Length of Day
11h 22m
Waning Crescent, 27% of the Moon is Illuminated
Oct 10
Waning Crescent
Oct 15
New
Oct 21
First Quarter
Oct 29
Full
Nov 6
Last Quarter

Hourly Weather History & Observations

Time (CDT) Temp. Windchill Dew Point Humidity Pressure Visibility Wind Dir Wind Speed Gust Speed Precip Events Conditions
12:53 AM 35.1 °F 31.0 °F 27.0 °F 72% 30.16 in 10.0 mi WSW 4.6 mph - N/A   Clear
1:53 AM 35.1 °F - 28.0 °F 76% 30.19 in 10.0 mi Calm Calm - N/A   Clear
2:53 AM 36.0 °F - 26.1 °F 67% 30.21 in 10.0 mi Calm Calm - N/A   Clear
3:53 AM 34.0 °F 29.8 °F 28.0 °F 79% 30.21 in 10.0 mi North 4.6 mph - N/A   Clear
4:53 AM 34.0 °F - 26.1 °F 73% 30.22 in 10.0 mi Calm Calm - N/A   Clear
5:53 AM 32.0 °F - 25.0 °F 75% 30.24 in 10.0 mi Calm Calm - N/A   Clear
6:53 AM 30.9 °F - 25.0 °F 79% 30.26 in 10.0 mi Calm Calm - N/A   Clear
7:53 AM 30.0 °F - 25.0 °F 82% 30.27 in 10.0 mi Calm Calm - N/A   Clear
8:53 AM 39.0 °F - 30.9 °F 73% 30.28 in 10.0 mi Calm Calm - N/A   Clear
9:53 AM 46.9 °F - 30.0 °F 52% 30.30 in 10.0 mi SSW 3.5 mph - N/A   Clear
10:53 AM 54.0 °F - 28.0 °F 37% 30.30 in 10.0 mi Calm Calm - N/A   Clear
11:53 AM 57.9 °F - 26.1 °F 30% 30.29 in 10.0 mi Calm Calm - N/A   Clear
12:53 PM 60.1 °F - 26.1 °F 27% 30.27 in 10.0 mi Calm Calm - N/A   Clear
1:53 PM 61.0 °F - 27.0 °F 27% 30.24 in 10.0 mi Variable 4.6 mph - N/A   Clear
2:53 PM 63.0 °F - 28.0 °F 27% 30.20 in 10.0 mi SSE 4.6 mph - N/A   Clear
3:53 PM 64.9 °F - 28.0 °F 25% 30.18 in 10.0 mi SSW 9.2 mph - N/A   Clear
4:53 PM 64.0 °F - 28.0 °F 26% 30.16 in 10.0 mi South 6.9 mph - N/A   Clear
5:53 PM 60.1 °F - 28.9 °F 31% 30.14 in 10.0 mi South 6.9 mph - N/A   Clear
6:53 PM 55.9 °F - 30.0 °F 37% 30.14 in 10.0 mi South 6.9 mph - N/A   Clear
7:53 PM 52.0 °F - 30.0 °F 43% 30.15 in 10.0 mi SSE 5.8 mph - N/A   Clear
8:53 PM 51.1 °F - 32.0 °F 48% 30.14 in 10.0 mi SSE 8.1 mph - N/A   Clear
9:53 PM 50.0 °F - 32.0 °F 50% 30.14 in 10.0 mi SSE 9.2 mph - N/A   Clear
10:53 PM 48.0 °F - 33.1 °F 56% 30.14 in 10.0 mi SSE 6.9 mph - N/A   Clear
11:53 PM 46.0 °F 43.1 °F 33.1 °F 61% 30.14 in 10.0 mi SSE 5.8 mph - N/A   Clear